Tracking 18665 objects as of 23-June-2017
HD Live streaming from Space Station
objects crossing your sky now

SKYNET 1

Track SKYNET 1 now!
SKYNET 1 is classified as:


NORAD ID: 4250
Int'l Code: 1969-101A
Perigee: 35,695.0 km
Apogee: 35,892.4 km
Inclination: 7.4 °
Period: 1,436.1 minutes
Semi major axis: 42164 km
RCS: 1.2928 m2 (large)
Launch date: November 22, 1969
Source: United Kingdom (UK)
Launch site: AIR FORCE EASTERN TEST RANGE (AFETR)
Your satellite tracking list
Your tracking list is empty





NASA's NSSDC Master Catalog

Two Line Element Set (TLE):
1  4250U 69101A   17173.51743968 -.00000082 +00000-0 +00000-0 0  9991
2  4250 007.3723 306.0016 0023410 233.4145 170.4179 01.00271980101619
Source of the keplerian elements: AFSPC